Location: Newark
(51.1667°N, 71.4333°E)
Time: 19:38:31
(UTC+00:00)

N. Korean satellite - Visible Passes

Search period start: 19 October 2021 00:00
Search period end: 29 October 2021 00:00
Orbit: 450 x 495 km, 97.3° (Epoch: 19 October)

Date Brightness Start Highest point End Pass type
(mag) Time Alt. Az. Time Alt. Az. Time Alt. Az.
19 Oct 8.6 00:04:53 10° NNE 00:08:13 32° E 00:11:33 10° SSE visible
19 Oct 9.7 23:37:29 10° NE 23:39:58 17° E 23:42:25 10° SE visible
20 Oct 6.9 01:09:53 10° N 01:13:25 46° WNW 01:16:56 10° SW visible
21 Oct 6.6 00:41:43 10° NNE 00:45:25 86° ESE 00:49:03 10° SSW visible
21 Oct 10.3 12:56:29 10° WSW 12:57:47 12° W 12:59:07 10° WNW visible
22 Oct 8.1 00:13:47 10° NNE 00:17:16 40° E 00:20:44 10° S visible
22 Oct 9.4 23:46:11 10° NE 23:49:02 21° E 23:51:50 10° SE visible
23 Oct 10.2 23:19:39 10° ENE 23:20:38 11° E 23:21:38 10° ESE visible
24 Oct 6.5 00:50:41 10° N 00:54:22 76° WNW 00:57:59 10° SSW visible
25 Oct 7.5 00:22:38 10° NNE 00:26:14 51° E 00:29:47 10° S visible
25 Oct 9.8 12:35:50 10° SW 12:38:25 18° W 12:41:01 10° NW visible
25 Oct 9.0 23:54:53 10° NE 23:57:59 25° E 00:01:04 10° SSE visible
26 Oct 10.0 23:27:44 10° ENE 23:29:37 13° E 23:31:28 10° ESE visible
27 Oct 6.6 00:59:35 10° N 01:03:13 59° WNW 01:06:47 10° SSW visible
28 Oct 7.0 00:31:26 10° NNE 00:35:05 65° ESE 00:38:41 10° S visible
28 Oct 10.0 12:45:09 10° SW 12:47:19 15° W 12:49:30 10° NW visible
